Theta_e
321 321 324 324 325 326 326 326 326 327 328 328 328 326 325 329 332 339 333 332 334 330 329 325 320 316 315 324 330 330 325 320 320 319 320 331 328 328 322 316 321 324 326 331 331 331 330 330 330
318 319 324 324 325 326 322 324 326 327 327 328 326 324 327 330 334 334 332 333 338 331 327 324 319 317 316 322 335 332 325 321 320 320 320 328 329 329 321 319 316 315 317 319 320 324 326 327 328
316 318 323 324 324 326 322 322 325 326 327 327 327 326 326 331 334 334 334 336 339 334 327 325 319 317 316 316 329 331 326 322 322 316 313 316 326 326 322 326 322 319 317 313 313 314 317 320 322
316 319 323 323 326 322 321 321 323 324 324 324 326 325 328 333 335 337 333 338 338 336 329 325 320 318 318 316 317 328 327 323 322 317 312 312 316 325 328 327 328 327 328 325 319 313 313 315 316
318 322 322 323 324 320 320 323 323 321 322 323 324 323 330 334 336 335 334 337 338 338 330 326 322 320 319 318 317 322 330 326 324 323 319 314 316 327 326 324 323 329 321 314 316 315 316 318 320
319 321 323 324 324 319 320 322 323 322 321 322 322 325 332 332 335 334 335 337 338 336 331 327 324 322 321 320 319 317 324 328 325 325 320 318 315 315 315 312 314 326 325 318 314 314 315 316 317
321 322 322 324 321 321 320 321 322 322 321 321 321 322 333 334 336 335 336 338 338 336 330 327 326 323 323 322 321 319 317 327 326 324 319 317 316 315 313 311 311 322 324 315 312 314 314 314 315
319 322 323 324 321 321 320 321 321 320 319 321 320 321 329 333 335 336 337 338 337 337 332 328 327 325 324 325 323 321 319 321 328 325 323 320 319 317 314 312 311 317 316 311 313 314 315 316 315
317 321 323 323 321 320 320 319 319 318 319 319 320 322 328 334 335 336 337 338 337 337 337 333 328 327 325 325 325 324 321 321 326 325 325 322 321 319 317 314 312 311 315 312 313 315 316 316 316
319 322 324 322 321 319 319 319 318 317 318 319 321 322 332 331 336 337 337 336 336 336 337 336 332 329 327 326 326 326 324 322 323 324 325 324 327 323 319 315 313 311 309 310 313 315 316 317 316
318 322 321 320 318 320 320 319 319 318 317 318 320 321 332 333 336 337 337 336 336 335 339 339 336 333 332 329 327 327 325 323 326 325 325 330 328 323 321 318 315 313 309 310 313 315 317 318 319
318 318 317 317 317 319 320 320 319 319 318 318 319 320 327 333 332 327 328 334 336 336 339 336 335 333 334 332 329 327 327 326 327 327 326 331 325 322 323 320 316 314 311 312 314 316 317 317 317
316 316 316 316 316 318 319 319 318 319 318 317 318 321 323 325 332 331 329 330 331 337 337 333 332 333 334 335 330 331 329 328 327 327 327 326 324 324 323 322 318 318 314 312 313 316 317 318 318
316 315 315 315 314 315 317 316 316 318 318 318 316 320 323 326 327 332 333 334 335 333 336 334 334 332 333 336 334 334 335 330 328 328 327 326 325 325 324 323 320 319 318 314 314 316 318 318 318
314 315 314 314 314 314 314 315 313 316 317 317 316 316 318 322 326 326 331 332 332 334 329 330 332 332 333 332 334 334 334 333 330 329 328 327 326 326 325 324 321 320 319 317 315 316 317 318 319
313 315 315 314 313 314 314 316 315 316 315 314 314 314 314 316 319 324 328 331 332 333 331 323 324 327 330 331 333 335 335 331 330 333 329 328 327 327 326 326 324 321 320 319 317 316 317 318 319
314 313 314 313 314 314 313 315 315 315 314 314 314 315 314 314 315 319 324 328 331 332 333 326 322 322 324 327 328 331 334 333 331 331 331 330 328 327 327 327 326 324 321 320 320 319 319 319 319
314 313 314 314 312 313 314 312 314 314 313 313 314 315 314 314 313 314 319 325 329 331 332 331 325 321 322 325 327 328 329 333 333 333 332 331 326 328 328 327 327 327 324 322 322 322 321 321 319
313 312 313 313 312 313 312 312 312 314 314 314 314 314 315 315 314 313 313 316 325 329 331 332 332 325 324 323 324 326 326 328 328 328 331 332 330 326 327 328 327 325 326 325 323 322 322 321 320
313 313 313 312 312 312 312 312 312 313 314 314 314 314 314 315 315 314 313 313 313 322 325 330 332 331 325 323 321 323 326 328 327 327 332 331 330 330 328 328 327 325 324 324 324 324 323 322 321
311 312 312 313 312 311 311 310 310 311 314 314 315 315 315 315 316 315 315 314 313 313 314 317 325 328 330 326 328 330 334 333 334 332 332 330 328 328 328 329 329 328 326 325 324 324 324 324 324
311 311 311 311 311 309 311 308 311 312 311 311 314 314 314 314 315 315 314 313 313 313 312 312 314 320 328 331 331 327 327 330 330 331 329 332 330 328 327 327 328 328 328 328 327 326 327 326 326
312 310 311 312 311 310 311 308 308 312 312 311 312 313 312 313 314 314 314 313 313 312 312 312 312 312 315 328 330 331 328 331 328 328 328 329 326 327 327 327 328 327 328 329 328 327 328 326 324
310 310 311 311 310 309 309 309 309 310 310 311 312 313 313 313 312 312 312 312 311 311 311 311 310 310 311 315 328 329 331 328 327 327 327 327 327 326 326 326 326 325 325 325 325 326 325 325 325
311 310 311 310 311 309 308 309 309 311 310 310 311 312 313 312 312 312 312 313 313 313 313 312 311 310 310 310 320 326 329 327 326 326 326 326 325 326 324 324 324 324 324 324 325 324 325 325 325
310 309 312 312 313 311 307 308 309 310 311 309 310 312 312 311 312 312 312 312 313 314 314 313 312 311 310 310 313 319 326 327 324 325 325 325 326 325 325 324 324 324 323 323 323 323 324 324 323
310 309 311 308 302 309 309 309 309 310 309 310 308 310 312 311 311 311 311 312 313 313 314 315 314 313 312 312 315 319 324 324 325 324 324 324 324 323 323 323 323 324 324 324 324 324 323 323 320
309 309 308 309 308 310 307 309 309 311 309 308 308 309 310 311 311 311 311 312 312 312 313 314 315 315 314 312 313 318 322 324 322 323 323 322 322 322 322 322 322 322 322 323 323 322 321 320 320
309 309 309 308 310 311 309 307 310 311 310 308 307 310 310 310 310 310 310 311 311 312 312 312 313 315 315 316 315 314 315 321 321 322 321 320 320 320 320 321 320 322 322 323 321 319 317 317 316
308 308 308 308 309 307 309 309 309 308 310 312 311 311 311 310 310 310 310 310 310 311 311 311 312 313 316 317 318 319 319 319 318 318 318 319 319 320 321 322 321 318 315 313 311 310 310 309 309
Wind_Speed
6 4 5 6 2 3 4 4 7 8 6 6 13 10 9 19 7 6 20 13 14 14 15 12 11 11 12 14 12 11 11 13 13 14 16 18 14 12 14 14 16 16 16 16 15 15 15 16 17
7 2 4 6 2 4 3 8 6 4 14 13 8 3 6 7 8 20 20 15 15 13 15 13 12 12 13 15 13 9 10 13 14 15 16 17 13 14 14 15 15 16 16 15 14 13 13 13 14
5 3 4 3 5 4 5 9 9 16 13 10 5 6 6 6 10 20 14 20 17 12 15 13 12 12 13 14 14 9 10 13 13 14 14 13 13 14 15 17 17 17 16 15 14 14 14 13 13
5 2 5 4 8 5 8 7 20 12 4 1 6 10 8 12 9 12 24 22 17 13 14 13 12 12 12 13 13 11 10 11 14 13 13 13 12 15 17 14 15 17 15 16 15 14 15 15 16
9 4 3 6 7 6 4 16 19 8 9 6 3 7 8 7 12 12 26 21 19 14 15 13 12 11 11 11 12 12 10 10 11 12 12 12 12 13 13 11 13 13 11 13 13 14 15 16 16
3 5 3 6 4 9 4 10 11 9 8 10 1 11 7 8 13 19 24 20 17 14 16 15 13 12 11 11 10 11 10 9 9 10 10 10 9 9 8 7 11 12 12 11 12 14 14 14 13
3 2 7 9 7 6 6 7 7 6 5 7 2 3 10 12 14 20 22 19 15 13 17 16 14 14 12 11 10 10 10 9 8 9 11 10 8 7 5 5 8 12 10 10 12 12 12 11 11
4 1 7 4 8 5 8 9 3 5 5 8 4 1 9 17 17 21 20 18 15 12 15 16 15 14 13 12 11 10 10 10 8 7 7 7 7 6 4 3 7 10 8 9 10 10 10 9 9
3 1 4 2 5 6 15 5 5 4 5 5 5 5 12 21 21 22 22 19 16 15 17 12 16 14 14 12 12 10 10 9 8 7 5 4 4 5 4 4 5 6 8 7 10 8 7 7 7
3 2 5 8 2 8 17 12 11 4 8 7 6 10 15 15 22 24 24 23 20 19 20 17 16 14 13 14 12 11 10 10 9 8 6 4 3 3 3 0 2 4 5 5 8 7 6 6 7
5 2 1 9 9 19 17 8 11 7 6 13 18 15 15 18 21 23 23 23 23 21 22 22 19 15 15 15 15 13 12 12 11 9 9 8 9 4 3 2 1 3 4 5 5 6 4 5 3
2 2 8 4 5 6 13 10 5 9 5 8 11 16 18 18 20 21 24 23 22 23 24 23 22 20 19 16 15 14 14 13 12 12 11 11 9 6 6 3 3 5 5 5 5 5 3 3 3
3 7 4 5 6 6 8 7 2 10 6 7 10 15 14 16 18 12 12 13 16 23 24 25 24 24 22 18 16 15 15 15 14 12 13 13 10 8 8 5 5 4 5 5 6 5 4 3 3
4 6 8 6 5 3 2 3 1 9 10 9 10 15 12 13 14 19 18 20 22 19 24 24 25 25 25 23 19 18 17 16 16 16 14 14 13 11 10 9 7 7 6 6 7 6 5 4 4
4 5 3 4 6 2 1 3 7 8 14 13 12 13 13 15 17 19 22 22 23 23 18 25 25 25 26 27 24 20 21 17 17 19 18 16 16 14 13 11 11 10 8 8 9 8 7 6 6
4 1 4 5 7 2 4 5 13 19 14 13 12 12 14 18 20 20 20 21 22 24 23 19 25 25 26 26 26 25 22 21 19 19 19 19 19 18 16 14 13 13 11 9 9 9 9 8 8
4 4 7 2 9 3 5 5 3 13 13 13 15 16 17 16 18 22 21 23 23 22 23 21 22 24 24 25 25 26 26 24 24 21 20 20 20 21 19 18 16 15 13 12 10 10 10 10 11
6 4 2 6 3 1 3 10 2 6 9 12 13 12 13 17 20 21 23 25 23 23 23 23 22 22 25 25 25 26 26 28 27 23 21 19 18 20 22 21 18 18 16 15 13 13 14 15 16
1 8 6 5 2 1 6 9 10 15 13 15 15 14 16 17 17 18 20 23 25 25 25 25 25 24 25 29 30 31 30 29 29 28 25 23 21 19 19 20 21 23 20 17 17 17 17 18 19
4 4 2 4 5 3 6 8 10 12 14 22 19 18 20 16 17 16 20 22 24 29 29 28 29 28 29 28 30 31 31 32 31 29 27 26 24 22 20 20 21 20 19 20 21 21 22 22 21
5 6 4 5 4 2 2 6 9 11 26 25 25 24 21 20 18 22 22 21 21 23 27 28 30 30 33 31 29 29 28 30 30 33 32 32 30 29 28 23 24 24 23 22 21 23 25 25 26
6 5 7 8 5 2 3 4 4 5 7 9 20 23 24 23 17 15 17 18 21 24 26 28 30 32 33 33 35 34 34 34 34 33 33 32 30 30 29 26 26 27 26 28 26 27 29 29 29
2 7 7 5 3 3 3 1 6 4 4 7 18 23 21 20 22 25 27 26 29 29 29 31 32 35 36 34 37 36 33 31 28 27 30 32 30 29 29 30 29 29 28 27 29 27 30 29 31
8 8 8 4 3 2 7 6 5 6 8 4 2 10 16 18 19 21 21 21 23 24 22 24 28 30 31 35 33 35 31 30 30 30 27 26 25 26 25 27 27 28 25 29 26 28 26 26 26
5 6 2 1 0 5 4 4 10 4 4 5 7 12 14 14 14 13 12 12 13 12 14 16 19 23 25 28 35 29 26 26 27 28 30 25 22 22 20 19 22 23 24 24 24 23 24 23 23
9 8 6 7 5 3 5 7 7 12 4 3 6 15 15 13 14 13 11 10 8 8 8 7 10 14 17 20 25 30 24 22 22 24 27 26 22 19 18 19 20 20 22 22 23 24 25 24 26
5 5 1 7 3 4 5 7 8 6 6 9 12 12 14 13 14 14 12 11 9 8 7 5 7 9 12 16 20 22 21 18 20 21 22 23 21 20 20 20 20 20 21 21 23 22 25 24 25
3 4 3 1 5 4 6 5 7 3 9 8 9 18 15 14 14 13 13 12 12 10 9 8 8 9 10 12 15 18 18 15 18 21 21 20 19 19 19 20 20 20 21 22 23 24 23 26 24
2 4 5 5 4 5 1 6 4 5 7 11 13 18 17 17 16 15 16 14 11 10 10 10 9 9 10 10 11 11 12 12 13 14 15 17 17 18 18 18 18 19 20 21 23 23 22 22 23
9 7 8 5 4 2 3 9 5 7 4 2 16 20 20 20 19 19 17 14 13 12 12 12 12 10 9 10 11 12 12 12 11 12 12 12 12 13 14 15 16 16 15 14 15 16 17 19 20
Wind_Direction
296 317 350 323 291 219 129 93 90 76 87 56 85 32 67 52 25 114 134 159 169 155 146 138 126 121 113 113 105 94 71 77 89 92 99 92 86 80 74 89 93 92 96 97 97 95 106 99 97
278 271 340 284 230 228 124 113 132 144 102 109 95 96 83 80 72 131 140 155 159 153 146 141 129 125 121 120 115 103 79 78 88 92 103 106 98 84 80 84 83 88 95 97 102 105 109 108 105
240 204 270 211 245 296 127 148 118 92 112 128 116 42 41 86 108 139 158 149 151 160 149 142 134 130 125 125 119 114 91 83 90 94 98 101 99 92 82 82 81 86 86 93 97 100 105 107 106
158 219 267 267 249 67 85 143 111 115 81 155 131 94 92 87 120 171 149 151 144 170 145 145 137 135 130 126 130 120 102 90 90 92 95 100 97 89 88 94 93 86 93 97 94 98 98 100 100
186 231 239 231 267 83 10 102 125 152 148 161 270 129 100 131 155 162 147 152 160 179 159 153 146 141 135 128 129 126 117 102 93 91 89 93 93 101 105 104 101 98 90 98 101 101 101 102 101
237 239 218 232 217 94 89 103 142 178 151 108 108 117 104 149 139 150 149 152 179 181 166 161 153 149 144 138 131 129 129 117 105 97 96 98 98 99 104 86 109 97 94 106 106 105 105 104 106
244 204 242 229 120 113 119 157 178 152 149 163 355 93 132 141 157 151 152 152 190 190 172 166 164 159 155 148 143 139 143 132 124 112 105 98 98 101 99 95 112 119 114 113 106 109 105 101 97
246 234 265 286 128 129 135 152 196 185 106 115 133 52 159 159 159 154 151 157 187 201 178 173 175 171 165 162 157 154 154 150 149 135 119 108 100 100 105 124 114 116 113 111 116 112 107 96 84
266 331 228 232 143 120 149 131 159 110 103 107 149 76 140 162 155 155 158 162 189 204 173 197 183 182 179 177 174 168 164 168 166 162 155 134 127 104 106 85 101 112 117 116 122 119 114 95 78
230 203 235 181 185 143 165 164 157 144 151 153 148 122 162 167 162 164 170 175 193 202 177 187 190 187 191 192 189 183 181 184 189 184 181 137 130 136 95 133 141 124 127 123 121 121 113 104 90
221 246 295 55 74 146 162 190 150 207 177 190 180 162 178 163 168 175 181 191 197 200 188 192 191 182 194 207 197 198 196 195 204 195 193 170 193 219 242 245 198 144 147 144 142 144 145 110 117
249 268 352 74 84 123 152 157 167 222 131 106 158 195 180 179 193 196 198 196 200 203 202 203 202 189 194 208 207 211 206 209 215 209 203 200 217 222 244 219 196 176 185 170 175 176 144 145 138
255 126 67 106 126 84 149 159 199 203 166 156 148 177 188 194 197 215 217 214 220 208 212 213 210 206 203 197 208 206 215 216 226 225 219 218 228 225 244 246 234 199 209 197 202 195 191 187 187
200 121 125 135 118 102 160 121 151 220 204 208 176 175 196 206 210 197 210 205 219 229 215 219 218 217 214 208 210 204 208 223 220 232 232 225 228 233 233 245 237 236 226 222 219 217 218 222 229
147 103 88 179 163 106 306 151 228 186 193 196 217 204 198 212 214 218 214 211 213 229 229 219 223 223 223 221 221 210 215 212 224 226 234 230 229 237 238 241 238 238 233 232 229 230 236 242 254
157 240 163 158 135 163 161 254 223 206 190 205 218 227 220 217 220 224 216 223 218 217 233 229 221 223 226 226 227 221 220 222 226 222 238 234 231 236 241 243 242 240 237 235 234 238 245 255 265
219 191 198 158 198 115 187 250 180 176 193 223 240 239 229 225 231 221 218 221 216 222 227 234 228 223 225 227 226 229 226 223 225 228 223 242 232 235 241 245 246 245 241 240 243 247 253 260 267
159 225 202 153 213 29 222 268 280 210 216 236 236 237 232 224 233 233 215 216 217 220 226 237 237 230 227 227 227 229 229 227 225 229 225 231 245 232 241 243 246 250 245 240 244 254 255 261 264
113 161 170 125 39 164 238 265 256 253 221 222 234 239 241 234 237 231 232 223 212 215 218 225 240 241 236 227 226 228 230 230 232 233 233 228 238 238 235 241 243 246 247 246 250 254 257 259 264
139 143 169 68 84 106 306 266 260 258 255 238 232 239 243 239 226 223 217 224 224 220 222 221 227 243 248 243 237 235 235 236 240 238 232 230 234 240 241 238 244 252 246 246 252 261 265 268 267
189 173 151 116 162 192 308 273 239 248 238 245 243 243 245 236 229 214 220 230 226 225 225 226 228 228 244 251 250 230 230 235 237 237 237 237 240 244 252 250 248 249 248 249 258 261 265 269 271
192 141 112 135 145 192 189 271 312 251 218 222 240 242 240 237 223 192 197 211 229 233 233 230 230 229 227 243 248 246 231 231 238 238 241 239 238 244 250 253 255 255 258 257 259 264 268 268 272
207 128 130 123 118 78 176 24 261 7 234 236 240 241 241 231 230 233 231 230 240 246 242 240 238 235 229 225 244 248 247 234 236 241 241 245 244 243 246 251 255 258 261 260 265 265 267 277 272
137 96 86 109 140 264 190 170 244 201 210 219 97 200 199 209 219 233 240 241 245 249 249 243 240 238 234 222 234 245 246 236 234 239 245 244 244 243 246 250 250 254 259 259 261 266 267 272 271
159 149 115 120 120 221 324 173 234 266 247 211 199 191 201 222 227 228 229 232 242 248 247 244 239 234 230 223 219 237 240 238 240 240 244 248 248 245 248 251 250 256 259 262 264 266 269 272 278
201 179 159 177 184 204 342 233 255 220 198 181 200 202 197 206 211 217 220 218 221 224 233 230 232 229 225 224 220 221 238 242 242 239 243 248 253 255 255 254 253 255 257 261 264 272 275 273 282
215 239 107 101 2 72 210 274 300 195 235 222 214 198 196 209 217 216 211 212 215 218 235 229 226 224 221 217 218 218 218 228 235 234 234 241 249 252 254 253 254 256 259 263 270 273 273 278 280
129 157 65 310 135 218 248 235 228 162 238 229 217 214 211 204 212 216 218 220 222 224 227 231 225 218 213 216 220 215 214 222 229 233 235 239 247 253 256 255 256 257 261 263 267 266 273 278 278
171 200 209 155 175 178 245 250 193 191 220 208 203 205 206 214 218 217 221 222 223 222 222 223 223 220 211 201 197 202 208 212 216 220 231 236 243 248 254 256 258 257 260 260 267 272 276 277 280
223 207 179 151 252 264 136 260 151 130 114 161 183 197 211 216 214 216 221 219 213 212 211 211 210 205 201 191 180 173 179 188 198 206 214 222 228 238 243 248 255 259 261 266 270 272 276 282 286